owner,sensor,date,latitude,longitude,vertical_datum,wind_speed,wind_to_direction,wind_speed_of_gust,qcFlag 
COMPS,ioos:station:USF.COMPS:C10:1,2019-08-01T00:35:00,27.1690,-82.9260,3.0,12.51,77.08,15.37,'11111222,11111222,11111222' 
COMPS,ioos:station:USF.COMPS:C10:1,2019-08-01T01:35:00,27.1690,-82.9260,3.0,9.55,57.13,11.36,'11111222,11111222,11111222' 
COMPS,ioos:station:USF.COMPS:C10:1,2019-08-01T02:35:00,27.1690,-82.9260,3.0,5.53,63.08,6.94,'11111222,11111222,11111222' 
COMPS,ioos:station:USF.COMPS:C10:1,2019-08-01T03:35:00,27.1690,-82.9260,3.0,7.79,117.07,10.21,'11111222,11111222,11111222' 
COMPS,ioos:station:USF.COMPS:C10:1,2019-08-01T04:35:00,27.1690,-82.9260,3.0,7.67,112.27,9.49,'11111222,11111222,11111222' 
COMPS,ioos:station:USF.COMPS:C10:1,2019-08-01T05:35:00,27.1690,-82.9260,3.0,9.24,123.31,11.12,'11111222,11111222,11111222' 
COMPS,ioos:station:USF.COMPS:C10:1,2019-08-01T06:35:00,27.1690,-82.9260,3.0,7.27,117.65,9.56,'11111222,11111222,11111222' 
COMPS,ioos:station:USF.COMPS:C10:1,2019-08-01T07:35:00,27.1690,-82.9260,3.0,5.76,118.4,7.02,'11111222,11111222,11111222' 
COMPS,ioos:station:USF.COMPS:C10:1,2019-08-01T09:35:00,27.1690,-82.9260,3.0,5.5,70.85,7.01,'11111222,11111222,11111222' 
COMPS,ioos:station:USF.COMPS:C10:1,2019-08-01T10:35:00,27.1690,-82.9260,3.0,5.88,86.75,7.55,'11111222,11111222,11111222' 
COMPS,ioos:station:USF.COMPS:C10:1,2019-08-01T11:35:00,27.1690,-82.9260,3.0,4.83,84.72,5.75,'11111222,11111222,11111222' 
COMPS,ioos:station:USF.COMPS:C10:1,2019-08-01T14:35:00,27.1690,-82.9260,3.0,4.27,65.62,5.0,'11111222,11111222,11111222' 
COMPS,ioos:station:USF.COMPS:C10:1,2019-08-01T16:35:00,27.1690,-82.9260,3.0,3.14,69.24,3.93,'11111222,11111222,11111222' 
COMPS,ioos:station:USF.COMPS:C10:1,2019-08-01T18:35:00,27.1690,-82.9260,3.0,1.42,72.2,2.15,'11111222,11111222,11111222' 
COMPS,ioos:station:USF.COMPS:C10:1,2019-08-01T19:35:00,27.1690,-82.9260,3.0,2.58,137.22,6.7,'11111222,11111222,11111222' 
COMPS,ioos:station:USF.COMPS:C10:1,2019-08-01T20:35:00,27.1690,-82.9260,3.0,1.54,299.7,2.41,'11111222,11111222,11111222' 
COMPS,ioos:station:USF.COMPS:C10:1,2019-08-01T21:35:00,27.1690,-82.9260,3.0,3.69,352.09,4.82,'11111222,11111222,11111222' 
COMPS,ioos:station:USF.COMPS:C10:1,2019-08-01T23:35:00,27.1690,-82.9260,3.0,4.34,71.08,7.29,'11111222,11111222,11111222' 
COMPS,ioos:station:USF.COMPS:C10:1,2019-08-02T00:35:00,27.1690,-82.9260,3.0,7.03,95.13,8.39,'11111222,11111222,11111222' 
COMPS,ioos:station:USF.COMPS:C10:1,2019-08-02T01:35:00,27.1690,-82.9260,3.0,6.76,87.71,8.64,'11111222,11111222,11111222' 
COMPS,ioos:station:USF.COMPS:C10:1,2019-08-02T02:35:00,27.1690,-82.9260,3.0,6.85,97.49,8.46,'11111222,11111222,11111222' 
COMPS,ioos:station:USF.COMPS:C10:1,2019-08-02T03:35:00,27.1690,-82.9260,3.0,7.38,102.84,8.72,'11111222,11111222,11111222' 
COMPS,ioos:station:USF.COMPS:C10:1,2019-08-02T06:35:00,27.1690,-82.9260,3.0,7.66,127.13,9.39,'11111222,11111222,11111222' 
COMPS,ioos:station:USF.COMPS:C10:1,2019-08-02T07:35:00,27.1690,-82.9260,3.0,6.69,133.31,8.46,'11111222,11111222,11111222' 
COMPS,ioos:station:USF.COMPS:C10:1,2019-08-02T08:35:00,27.1690,-82.9260,3.0,5.86,127.46,7.55,'11111222,11111222,11111222' 
COMPS,ioos:station:USF.COMPS:C10:1,2019-08-02T09:35:00,27.1690,-82.9260,3.0,5.83,107.14,7.34,'11111222,11111222,11111222' 
COMPS,ioos:station:USF.COMPS:C10:1,2019-08-02T10:35:00,27.1690,-82.9260,3.0,6.29,100.51,7.55,'11111222,11111222,11111222' 
COMPS,ioos:station:USF.COMPS:C10:1,2019-08-02T11:35:00,27.1690,-82.9260,3.0,4.72,101.02,6.6,'11111222,11111222,11111222' 
COMPS,ioos:station:USF.COMPS:C10:1,2019-08-02T12:35:00,27.1690,-82.9260,3.0,4.24,88.65,5.51,'11111222,11111222,11111222' 
COMPS,ioos:station:USF.COMPS:C10:1,2019-08-02T13:35:00,27.1690,-82.9260,3.0,4.15,96.6,5.55,'11111222,11111222,11111222' 
COMPS,ioos:station:USF.COMPS:C10:1,2019-08-02T14:35:00,27.1690,-82.9260,3.0,1.42,270.0,2.67,'11111222,11111222,11111222' 
COMPS,ioos:station:USF.COMPS:C10:1,2019-08-02T15:35:00,27.1690,-82.9260,3.0,1.48,290.14,2.43,'11111222,11111222,11111222' 
COMPS,ioos:station:USF.COMPS:C10:1,2019-08-02T17:35:00,27.1690,-82.9260,3.0,1.69,92.84,2.92,'11111222,11111222,11111222' 
COMPS,ioos:station:USF.COMPS:C10:1,2019-08-02T19:35:00,27.1690,-82.9260,3.0,1.67,116.96,2.97,'11111222,11111222,11111222' 
COMPS,ioos:station:USF.COMPS:C10:1,2019-08-02T20:35:00,27.1690,-82.9260,3.0,3.07,125.13,5.35,'11111222,11111222,11111222' 
COMPS,ioos:station:USF.COMPS:C10:1,2019-08-02T21:35:00,27.1690,-82.9260,3.0,2.41,154.12,3.35,'11111222,11111222,11111222' 
COMPS,ioos:station:USF.COMPS:C10:1,2019-08-02T22:35:00,27.1690,-82.9260,3.0,1.38,136.74,2.16,'11111222,11111222,11111222' 
COMPS,ioos:station:USF.COMPS:C10:1,2019-08-02T23:35:00,27.1690,-82.9260,3.0,2.41,101.6,3.93,'11111222,11111222,11111222' 
COMPS,ioos:station:USF.COMPS:C10:1,2019-08-03T00:35:00,27.1690,-82.9260,3.0,2.67,105.68,3.6,'11111222,11111222,11111222' 
COMPS,ioos:station:USF.COMPS:C10:1,2019-08-03T01:35:00,27.1690,-82.9260,3.0,8.88,83.82,10.78,'11111222,11111222,11111222' 
COMPS,ioos:station:USF.COMPS:C10:1,2019-08-03T03:35:00,27.1690,-82.9260,3.0,6.07,111.91,7.48,'11111222,11111222,11111222' 
COMPS,ioos:station:USF.COMPS:C10:1,2019-08-03T04:35:00,27.1690,-82.9260,3.0,5.71,125.98,7.3,'11111222,11111222,11111222' 
COMPS,ioos:station:USF.COMPS:C10:1,2019-08-03T05:35:00,27.1690,-82.9260,3.0,6.59,134.96,8.1,'11111222,11111222,11111222' 
COMPS,ioos:station:USF.COMPS:C10:1,2019-08-03T06:35:00,27.1690,-82.9260,3.0,6.26,137.67,8.05,'11111222,11111222,11111222' 
COMPS,ioos:station:USF.COMPS:C10:1,2019-08-03T07:35:00,27.1690,-82.9260,3.0,5.44,162.04,7.18,'11111222,11111222,11111222' 
COMPS,ioos:station:USF.COMPS:C10:1,2019-08-03T08:35:00,27.1690,-82.9260,3.0,5.03,188.58,6.43,'11111222,11111222,11111222' 
COMPS,ioos:station:USF.COMPS:C10:1,2019-08-03T09:35:00,27.1690,-82.9260,3.0,4.89,208.16,6.0,'11111222,11111222,11111222' 
COMPS,ioos:station:USF.COMPS:C10:1,2019-08-03T10:35:00,27.1690,-82.9260,3.0,4.75,219.28,5.99,'11111222,11111222,11111222' 
COMPS,ioos:station:USF.COMPS:C10:1,2019-08-03T11:35:00,27.1690,-82.9260,3.0,4.72,228.59,6.13,'11111222,11111222,11111222' 
COMPS,ioos:station:USF.COMPS:C10:1,2019-08-03T12:35:00,27.1690,-82.9260,3.0,3.59,234.24,4.81,'11111222,11111222,11111222' 
COMPS,ioos:station:USF.COMPS:C10:1,2019-08-03T13:35:00,27.1690,-82.9260,3.0,4.48,228.32,6.05,'11111222,11111222,11111222' 
COMPS,ioos:station:USF.COMPS:C10:1,2019-08-03T14:35:00,27.1690,-82.9260,3.0,4.57,247.36,6.21,'11111222,11111222,11111222' 
COMPS,ioos:station:USF.COMPS:C10:1,2019-08-03T15:35:00,27.1690,-82.9260,3.0,3.97,253.48,4.96,'11111222,11111222,11111222' 
COMPS,ioos:station:USF.COMPS:C10:1,2019-08-03T16:35:00,27.1690,-82.9260,3.0,3.4,295.31,5.67,'11111222,11111222,11111222' 
COMPS,ioos:station:USF.COMPS:C10:1,2019-08-03T17:35:00,27.1690,-82.9260,3.0,4.82,278.13,6.32,'11111222,11111222,11111222' 
COMPS,ioos:station:USF.COMPS:C10:1,2019-08-03T18:35:00,27.1690,-82.9260,3.0,3.66,310.5,4.75,'11111222,11111222,11111222' 
COMPS,ioos:station:USF.COMPS:C10:1,2019-08-03T19:35:00,27.1690,-82.9260,3.0,3.29,334.9,4.41,'11111222,11111222,11111222' 
COMPS,ioos:station:USF.COMPS:C10:1,2019-08-03T20:35:00,27.1690,-82.9260,3.0,2.92,345.69,4.45,'11111222,11111222,11111222' 
COMPS,ioos:station:USF.COMPS:C10:1,2019-08-03T21:35:00,27.1690,-82.9260,3.0,1.8,5.97,2.82,'11111222,11111222,11111222' 
COMPS,ioos:station:USF.COMPS:C10:1,2019-08-04T00:35:00,27.1690,-82.9260,3.0,1.97,276.23,2.86,'11111222,11111222,11111222' 
COMPS,ioos:station:USF.COMPS:C10:1,2019-08-04T01:35:00,27.1690,-82.9260,3.0,1.49,273.6,2.28,'11111222,11111222,11111222' 
COMPS,ioos:station:USF.COMPS:C10:1,2019-08-04T02:35:00,27.1690,-82.9260,3.0,1.84,221.11,2.51,'11111222,11111222,11111222' 
COMPS,ioos:station:USF.COMPS:C10:1,2019-08-04T03:35:00,27.1690,-82.9260,3.0,1.71,227.6,2.14,'11111222,11111222,11111222' 
COMPS,ioos:station:USF.COMPS:C10:1,2019-08-04T04:35:00,27.1690,-82.9260,3.0,1.49,239.75,2.04,'11111222,11111222,11111222' 
COMPS,ioos:station:USF.COMPS:C10:1,2019-08-04T05:35:00,27.1690,-82.9260,3.0,1.39,216.01,1.95,'11111222,11111222,11111222' 
COMPS,ioos:station:USF.COMPS:C10:1,2019-08-04T06:35:00,27.1690,-82.9260,3.0,2.26,226.05,3.26,'11111222,11111222,11111222' 
COMPS,ioos:station:USF.COMPS:C10:1,2019-08-04T07:35:00,27.1690,-82.9260,3.0,3.23,228.04,4.06,'11111222,11111222,11111222' 
COMPS,ioos:station:USF.COMPS:C10:1,2019-08-04T08:35:00,27.1690,-82.9260,3.0,2.75,234.44,3.92,'11111222,11111222,11111222' 
COMPS,ioos:station:USF.COMPS:C10:1,2019-08-04T09:35:00,27.1690,-82.9260,3.0,2.97,253.74,4.03,'11111222,11111222,11111222' 
COMPS,ioos:station:USF.COMPS:C10:1,2019-08-04T10:35:00,27.1690,-82.9260,3.0,2.52,237.86,3.4,'11111222,11111222,11111222' 
COMPS,ioos:station:USF.COMPS:C10:1,2019-08-04T11:35:00,27.1690,-82.9260,3.0,3.24,230.87,4.93,'11111222,11111222,11111222' 
COMPS,ioos:station:USF.COMPS:C10:1,2019-08-04T12:35:00,27.1690,-82.9260,3.0,2.71,262.67,3.75,'11111222,11111222,11111222' 
COMPS,ioos:station:USF.COMPS:C10:1,2019-08-04T13:35:00,27.1690,-82.9260,3.0,2.74,260.85,3.71,'11111222,11111222,11111222' 
COMPS,ioos:station:USF.COMPS:C10:1,2019-08-04T14:35:00,27.1690,-82.9260,3.0,2.95,247.78,3.71,'11111222,11111222,11111222' 
COMPS,ioos:station:USF.COMPS:C10:1,2019-08-04T15:35:00,27.1690,-82.9260,3.0,2.99,269.41,4.06,'11111222,11111222,11111222' 
COMPS,ioos:station:USF.COMPS:C10:1,2019-08-04T16:35:00,27.1690,-82.9260,3.0,3.95,276.54,4.97,'11111222,11111222,11111222' 
COMPS,ioos:station:USF.COMPS:C10:1,2019-08-04T17:35:00,27.1690,-82.9260,3.0,3.74,264.23,4.85,'11111222,11111222,11111222' 
COMPS,ioos:station:USF.COMPS:C10:1,2019-08-04T18:35:00,27.1690,-82.9260,3.0,3.6,294.38,4.66,'11111222,11111222,11111222' 
COMPS,ioos:station:USF.COMPS:C10:1,2019-08-04T19:35:00,27.1690,-82.9260,3.0,3.76,286.55,4.72,'11111222,11111222,11111222' 
COMPS,ioos:station:USF.COMPS:C10:1,2019-08-04T20:35:00,27.1690,-82.9260,3.0,2.64,304.07,3.81,'11111222,11111222,11111222' 
COMPS,ioos:station:USF.COMPS:C10:1,2019-08-04T21:35:00,27.1690,-82.9260,3.0,2.4,305.31,3.38,'11111222,11111222,11111222' 
COMPS,ioos:station:USF.COMPS:C10:1,2019-08-04T22:35:00,27.1690,-82.9260,3.0,1.97,317.58,2.71,'11111222,11111222,11111222' 
COMPS,ioos:station:USF.COMPS:C10:1,2019-08-05T00:35:00,27.1690,-82.9260,3.0,1.78,217.48,2.57,'11111222,11111222,11111222' 
COMPS,ioos:station:USF.COMPS:C10:1,2019-08-05T01:35:00,27.1690,-82.9260,3.0,2.83,197.39,3.96,'11111222,11111222,11111222' 
COMPS,ioos:station:USF.COMPS:C10:1,2019-08-05T02:35:00,27.1690,-82.9260,3.0,3.69,210.82,4.74,'11111222,11111222,11111222' 
COMPS,ioos:station:USF.COMPS:C10:1,2019-08-05T03:35:00,27.1690,-82.9260,3.0,4.5,224.78,5.4,'11111222,11111222,11111222' 
COMPS,ioos:station:USF.COMPS:C10:1,2019-08-05T04:35:00,27.1690,-82.9260,3.0,3.29,232.06,4.4,'11111222,11111222,11111222' 
COMPS,ioos:station:USF.COMPS:C10:1,2019-08-05T05:35:00,27.1690,-82.9260,3.0,2.99,251.0,4.14,'11111222,11111222,11111222' 
COMPS,ioos:station:USF.COMPS:C10:1,2019-08-05T06:35:00,27.1690,-82.9260,3.0,2.69,229.15,3.98,'11111222,11111222,11111222' 
COMPS,ioos:station:USF.COMPS:C10:1,2019-08-05T07:35:00,27.1690,-82.9260,3.0,3.31,243.48,4.39,'11111222,11111222,11111222' 
COMPS,ioos:station:USF.COMPS:C10:1,2019-08-05T08:35:00,27.1690,-82.9260,3.0,4.59,262.06,6.71,'11111222,11111222,11111222' 
COMPS,ioos:station:USF.COMPS:C10:1,2019-08-05T09:35:00,27.1690,-82.9260,3.0,2.56,250.22,5.81,'11111222,11111222,11111222' 
COMPS,ioos:station:USF.COMPS:C10:1,2019-08-05T10:35:00,27.1690,-82.9260,3.0,3.71,228.87,5.77,'11111222,11111222,11111222' 
COMPS,ioos:station:USF.COMPS:C10:1,2019-08-05T11:35:00,27.1690,-82.9260,3.0,3.56,226.58,4.58,'11111222,11111222,11111222' 
COMPS,ioos:station:USF.COMPS:C10:1,2019-08-05T12:35:00,27.1690,-82.9260,3.0,4.19,236.27,5.52,'11111222,11111222,11111222' 
COMPS,ioos:station:USF.COMPS:C10:1,2019-08-05T13:35:00,27.1690,-82.9260,3.0,5.33,235.11,6.82,'11111222,11111222,11111222' 
COMPS,ioos:station:USF.COMPS:C10:1,2019-08-05T14:35:00,27.1690,-82.9260,3.0,5.04,236.32,6.28,'11111222,11111222,11111222' 
COMPS,ioos:station:USF.COMPS:C10:1,2019-08-05T15:35:00,27.1690,-82.9260,3.0,2.64,228.06,3.65,'11111222,11111222,11111222' 
COMPS,ioos:station:USF.COMPS:C10:1,2019-08-05T16:35:00,27.1690,-82.9260,3.0,2.32,228.72,3.49,'11111222,11111222,11111222' 
COMPS,ioos:station:USF.COMPS:C10:1,2019-08-05T17:35:00,27.1690,-82.9260,3.0,2.81,218.12,4.28,'11111222,11111222,11111222' 
COMPS,ioos:station:USF.COMPS:C10:1,2019-08-05T18:35:00,27.1690,-82.9260,3.0,2.6,241.57,3.79,'11111222,11111222,11111222' 
COMPS,ioos:station:USF.COMPS:C10:1,2019-08-05T19:35:00,27.1690,-82.9260,3.0,2.45,239.72,3.79,'11111222,11111222,11111222' 
COMPS,ioos:station:USF.COMPS:C10:1,2019-08-05T20:35:00,27.1690,-82.9260,3.0,1.54,223.04,2.09,'11111222,11111222,11111222' 
COMPS,ioos:station:USF.COMPS:C10:1,2019-08-05T21:35:00,27.1690,-82.9260,3.0,3.35,69.7,7.73,'11111222,11111222,11111222' 
COMPS,ioos:station:USF.COMPS:C10:1,2019-08-05T23:35:00,27.1690,-82.9260,3.0,3.0,130.52,3.76,'11111222,11111222,11111222' 
COMPS,ioos:station:USF.COMPS:C10:1,2019-08-06T00:35:00,27.1690,-82.9260,3.0,1.11,145.91,1.4,'11111222,11111222,11111222' 
COMPS,ioos:station:USF.COMPS:C10:1,2019-08-06T01:35:00,27.1690,-82.9260,3.0,3.63,153.91,4.56,'11111222,11111222,11111222' 
COMPS,ioos:station:USF.COMPS:C10:1,2019-08-06T02:35:00,27.1690,-82.9260,3.0,4.92,177.17,6.13,'11111222,11111222,11111222' 
COMPS,ioos:station:USF.COMPS:C10:1,2019-08-06T03:35:00,27.1690,-82.9260,3.0,6.13,187.56,7.27,'11111222,11111222,11111222' 
COMPS,ioos:station:USF.COMPS:C10:1,2019-08-06T04:35:00,27.1690,-82.9260,3.0,4.55,219.17,5.43,'11111222,11111222,11111222' 
COMPS,ioos:station:USF.COMPS:C10:1,2019-08-06T05:35:00,27.1690,-82.9260,3.0,5.75,233.66,7.51,'11111222,11111222,11111222' 
COMPS,ioos:station:USF.COMPS:C10:1,2019-08-06T07:35:00,27.1690,-82.9260,3.0,5.13,218.99,6.45,'11111222,11111222,11111222' 
COMPS,ioos:station:USF.COMPS:C10:1,2019-08-06T08:35:00,27.1690,-82.9260,3.0,4.73,223.69,6.93,'11111222,11111222,11111222' 
COMPS,ioos:station:USF.COMPS:C10:1,2019-08-06T09:35:00,27.1690,-82.9260,3.0,4.7,227.8,5.89,'11111222,11111222,11111222' 
COMPS,ioos:station:USF.COMPS:C10:1,2019-08-06T10:35:00,27.1690,-82.9260,3.0,4.98,233.53,5.89,'11111222,11111222,11111222' 
COMPS,ioos:station:USF.COMPS:C10:1,2019-08-06T11:35:00,27.1690,-82.9260,3.0,4.81,251.24,6.28,'11111222,11111222,11111222' 
COMPS,ioos:station:USF.COMPS:C10:1,2019-08-06T12:35:00,27.1690,-82.9260,3.0,3.65,253.66,4.85,'11111222,11111222,11111222' 
COMPS,ioos:station:USF.COMPS:C10:1,2019-08-06T13:35:00,27.1690,-82.9260,3.0,3.2,260.9,4.47,'11111222,11111222,11111222' 
COMPS,ioos:station:USF.COMPS:C10:1,2019-08-06T14:35:00,27.1690,-82.9260,3.0,3.62,289.15,5.0,'11111222,11111222,11111222' 
COMPS,ioos:station:USF.COMPS:C10:1,2019-08-06T15:35:00,27.1690,-82.9260,3.0,4.51,280.06,5.52,'11111222,11111222,11111222' 
COMPS,ioos:station:USF.COMPS:C10:1,2019-08-06T16:35:00,27.1690,-82.9260,3.0,4.44,278.92,5.7,'11111222,11111222,11111222' 
COMPS,ioos:station:USF.COMPS:C10:1,2019-08-06T17:35:00,27.1690,-82.9260,3.0,5.29,283.08,6.39,'11111222,11111222,11111222' 
COMPS,ioos:station:USF.COMPS:C10:1,2019-08-06T18:35:00,27.1690,-82.9260,3.0,6.99,273.06,9.61,'11111222,11111222,11111222' 
COMPS,ioos:station:USF.COMPS:C10:1,2019-08-06T19:35:00,27.1690,-82.9260,3.0,4.66,281.59,6.0,'11111222,11111222,11111222' 
COMPS,ioos:station:USF.COMPS:C10:1,2019-08-06T20:35:00,27.1690,-82.9260,3.0,4.5,295.41,6.07,'11111222,11111222,11111222' 
COMPS,ioos:station:USF.COMPS:C10:1,2019-08-06T21:35:00,27.1690,-82.9260,3.0,3.35,297.85,4.22,'11111222,11111222,11111222' 
COMPS,ioos:station:USF.COMPS:C10:1,2019-08-06T22:35:00,27.1690,-82.9260,3.0,1.95,267.56,2.61,'11111222,11111222,11111222' 
COMPS,ioos:station:USF.COMPS:C10:1,2019-08-07T00:35:00,27.1690,-82.9260,3.0,1.81,228.69,2.87,'11111222,11111222,11111222' 
COMPS,ioos:station:USF.COMPS:C10:1,2019-08-07T01:35:00,27.1690,-82.9260,3.0,2.2,211.55,2.93,'11111222,11111222,11111222' 
COMPS,ioos:station:USF.COMPS:C10:1,2019-08-07T02:35:00,27.1690,-82.9260,3.0,4.8,226.93,6.09,'11111222,11111222,11111222' 
COMPS,ioos:station:USF.COMPS:C10:1,2019-08-07T03:35:00,27.1690,-82.9260,3.0,4.51,214.07,5.83,'11111222,11111222,11111222' 
COMPS,ioos:station:USF.COMPS:C10:1,2019-08-07T04:35:00,27.1690,-82.9260,3.0,4.49,225.34,5.36,'11111222,11111222,11111222' 
COMPS,ioos:station:USF.COMPS:C10:1,2019-08-07T05:35:00,27.1690,-82.9260,3.0,4.27,234.21,5.54,'11111222,11111222,11111222' 
COMPS,ioos:station:USF.COMPS:C10:1,2019-08-07T06:35:00,27.1690,-82.9260,3.0,3.54,232.09,4.56,'11111222,11111222,11111222' 
COMPS,ioos:station:USF.COMPS:C10:1,2019-08-07T07:35:00,27.1690,-82.9260,3.0,3.78,238.31,4.61,'11111222,11111222,11111222' 
COMPS,ioos:station:USF.COMPS:C10:1,2019-08-07T08:35:00,27.1690,-82.9260,3.0,4.0,250.01,5.24,'11111222,11111222,11111222' 
COMPS,ioos:station:USF.COMPS:C10:1,2019-08-07T09:35:00,27.1690,-82.9260,3.0,4.5,256.58,5.96,'11111222,11111222,11111222' 
COMPS,ioos:station:USF.COMPS:C10:1,2019-08-07T10:35:00,27.1690,-82.9260,3.0,5.07,259.27,6.21,'11111222,11111222,11111222' 
COMPS,ioos:station:USF.COMPS:C10:1,2019-08-07T11:35:00,27.1690,-82.9260,3.0,5.42,264.87,6.82,'11111222,11111222,11111222' 
COMPS,ioos:station:USF.COMPS:C10:1,2019-08-07T12:35:00,27.1690,-82.9260,3.0,5.89,261.29,7.37,'11111222,11111222,11111222' 
COMPS,ioos:station:USF.COMPS:C10:1,2019-08-07T13:35:00,27.1690,-82.9260,3.0,5.06,274.39,6.31,'11111222,11111222,11111222' 
COMPS,ioos:station:USF.COMPS:C10:1,2019-08-07T14:35:00,27.1690,-82.9260,3.0,4.82,292.84,6.1,'11111222,11111222,11111222' 
COMPS,ioos:station:USF.COMPS:C10:1,2019-08-07T15:35:00,27.1690,-82.9260,3.0,4.61,279.37,5.81,'11111222,11111222,11111222' 
COMPS,ioos:station:USF.COMPS:C10:1,2019-08-07T16:35:00,27.1690,-82.9260,3.0,3.63,265.17,4.6,'11111222,11111222,11111222' 
COMPS,ioos:station:USF.COMPS:C10:1,2019-08-07T17:35:00,27.1690,-82.9260,3.0,4.82,275.56,6.01,'11111222,11111222,11111222' 
COMPS,ioos:station:USF.COMPS:C10:1,2019-08-07T18:35:00,27.1690,-82.9260,3.0,5.58,276.2,7.05,'11111222,11111222,11111222' 
COMPS,ioos:station:USF.COMPS:C10:1,2019-08-07T19:35:00,27.1690,-82.9260,3.0,5.29,263.96,6.53,'11111222,11111222,11111222' 
COMPS,ioos:station:USF.COMPS:C10:1,2019-08-07T20:35:00,27.1690,-82.9260,3.0,6.02,253.04,7.13,'11111222,11111222,11111222' 
COMPS,ioos:station:USF.COMPS:C10:1,2019-08-07T21:35:00,27.1690,-82.9260,3.0,4.44,262.35,6.56,'11111222,11111222,11111222' 
COMPS,ioos:station:USF.COMPS:C10:1,2019-08-07T22:35:00,27.1690,-82.9260,3.0,4.04,248.45,5.64,'11111222,11111222,11111222' 
COMPS,ioos:station:USF.COMPS:C10:1,2019-08-07T23:35:00,27.1690,-82.9260,3.0,5.99,253.58,8.09,'11111222,11111222,11111222' 
COMPS,ioos:station:USF.COMPS:C10:1,2019-08-08T00:35:00,27.1690,-82.9260,3.0,4.3,252.39,5.09,'11111222,11111222,11111222' 
COMPS,ioos:station:USF.COMPS:C10:1,2019-08-08T01:35:00,27.1690,-82.9260,3.0,4.01,230.79,5.17,'11111222,11111222,11111222' 
COMPS,ioos:station:USF.COMPS:C10:1,2019-08-08T02:35:00,27.1690,-82.9260,3.0,5.56,223.77,6.72,'11111222,11111222,11111222' 
COMPS,ioos:station:USF.COMPS:C10:1,2019-08-08T03:35:00,27.1690,-82.9260,3.0,5.58,242.5,6.81,'11111222,11111222,11111222' 
COMPS,ioos:station:USF.COMPS:C10:1,2019-08-08T06:35:00,27.1690,-82.9260,3.0,4.5,261.82,5.34,'11111222,11111222,11111222' 
COMPS,ioos:station:USF.COMPS:C10:1,2019-08-08T07:35:00,27.1690,-82.9260,3.0,4.62,261.71,5.69,'11111222,11111222,11111222' 
COMPS,ioos:station:USF.COMPS:C10:1,2019-08-08T08:35:00,27.1690,-82.9260,3.0,4.17,251.42,5.45,'11111222,11111222,11111222' 
COMPS,ioos:station:USF.COMPS:C10:1,2019-08-08T09:35:00,27.1690,-82.9260,3.0,4.13,238.64,5.38,'11111222,11111222,11111222' 
COMPS,ioos:station:USF.COMPS:C10:1,2019-08-08T10:35:00,27.1690,-82.9260,3.0,3.88,250.37,5.1,'11111222,11111222,11111222' 
COMPS,ioos:station:USF.COMPS:C10:1,2019-08-08T11:35:00,27.1690,-82.9260,3.0,4.07,268.62,5.39,'11111222,11111222,11111222' 
COMPS,ioos:station:USF.COMPS:C10:1,2019-08-08T12:35:00,27.1690,-82.9260,3.0,3.44,273.19,4.54,'11111222,11111222,11111222' 
COMPS,ioos:station:USF.COMPS:C10:1,2019-08-08T13:35:00,27.1690,-82.9260,3.0,3.83,273.0,4.93,'11111222,11111222,11111222' 
COMPS,ioos:station:USF.COMPS:C10:1,2019-08-08T14:35:00,27.1690,-82.9260,3.0,3.74,272.77,4.88,'11111222,11111222,11111222' 
COMPS,ioos:station:USF.COMPS:C10:1,2019-08-08T15:35:00,27.1690,-82.9260,3.0,4.04,277.52,4.93,'11111222,11111222,11111222' 
COMPS,ioos:station:USF.COMPS:C10:1,2019-08-08T16:35:00,27.1690,-82.9260,3.0,4.03,269.57,5.23,'11111222,11111222,11111222' 
COMPS,ioos:station:USF.COMPS:C10:1,2019-08-08T17:35:00,27.1690,-82.9260,3.0,3.74,270.3,5.02,'11111222,11111222,11111222' 
COMPS,ioos:station:USF.COMPS:C10:1,2019-08-08T18:35:00,27.1690,-82.9260,3.0,4.4,277.84,5.27,'11111222,11111222,11111222' 
COMPS,ioos:station:USF.COMPS:C10:1,2019-08-08T19:35:00,27.1690,-82.9260,3.0,5.65,256.22,10.65,'11111222,11111222,11111222' 
COMPS,ioos:station:USF.COMPS:C10:1,2019-08-08T20:35:00,27.1690,-82.9260,3.0,5.14,292.54,7.23,'11111222,11111222,11111222' 
COMPS,ioos:station:USF.COMPS:C10:1,2019-08-08T21:35:00,27.1690,-82.9260,3.0,3.62,288.94,4.82,'11111222,11111222,11111222' 
COMPS,ioos:station:USF.COMPS:C10:1,2019-08-08T22:35:00,27.1690,-82.9260,3.0,3.0,276.56,4.23,'11111222,11111222,11111222' 
COMPS,ioos:station:USF.COMPS:C10:1,2019-08-08T23:35:00,27.1690,-82.9260,3.0,5.21,247.68,7.24,'11111222,11111222,11111222' 
COMPS,ioos:station:USF.COMPS:C10:1,2019-08-09T00:35:00,27.1690,-82.9260,3.0,5.58,226.88,6.9,'11111222,11111222,11111222' 
COMPS,ioos:station:USF.COMPS:C10:1,2019-08-09T01:35:00,27.1690,-82.9260,3.0,6.93,240.44,8.5,'11111222,11111222,11111222' 
COMPS,ioos:station:USF.COMPS:C10:1,2019-08-09T02:35:00,27.1690,-82.9260,3.0,4.91,252.35,6.1,'11111222,11111222,11111222' 
COMPS,ioos:station:USF.COMPS:C10:1,2019-08-09T03:35:00,27.1690,-82.9260,3.0,4.69,253.79,5.84,'11111222,11111222,11111222' 
COMPS,ioos:station:USF.COMPS:C10:1,2019-08-09T04:35:00,27.1690,-82.9260,3.0,4.64,256.52,5.67,'11111222,11111222,11111222' 
COMPS,ioos:station:USF.COMPS:C10:1,2019-08-09T05:35:00,27.1690,-82.9260,3.0,5.25,274.94,6.57,'11111222,11111222,11111222' 
COMPS,ioos:station:USF.COMPS:C10:1,2019-08-09T06:35:00,27.1690,-82.9260,3.0,4.76,281.73,6.16,'11111222,11111222,11111222' 
COMPS,ioos:station:USF.COMPS:C10:1,2019-08-09T07:35:00,27.1690,-82.9260,3.0,4.31,283.69,5.37,'11111222,11111222,11111222' 
COMPS,ioos:station:USF.COMPS:C10:1,2019-08-09T08:35:00,27.1690,-82.9260,3.0,3.53,284.73,4.46,'11111222,11111222,11111222' 
COMPS,ioos:station:USF.COMPS:C10:1,2019-08-09T09:35:00,27.1690,-82.9260,3.0,3.74,261.21,4.8,'11111222,11111222,11111222' 
COMPS,ioos:station:USF.COMPS:C10:1,2019-08-09T10:35:00,27.1690,-82.9260,3.0,4.44,263.65,5.51,'11111222,11111222,11111222' 
COMPS,ioos:station:USF.COMPS:C10:1,2019-08-09T11:35:00,27.1690,-82.9260,3.0,4.89,271.94,5.76,'11111222,11111222,11111222' 
COMPS,ioos:station:USF.COMPS:C10:1,2019-08-09T12:35:00,27.1690,-82.9260,3.0,5.4,274.48,6.82,'11111222,11111222,11111222' 
COMPS,ioos:station:USF.COMPS:C10:1,2019-08-09T13:35:00,27.1690,-82.9260,3.0,5.49,278.52,6.68,'11111222,11111222,11111222' 
COMPS,ioos:station:USF.COMPS:C10:1,2019-08-09T14:35:00,27.1690,-82.9260,3.0,5.17,295.97,6.34,'11111222,11111222,11111222' 
COMPS,ioos:station:USF.COMPS:C10:1,2019-08-09T15:35:00,27.1690,-82.9260,3.0,4.83,284.11,6.07,'11111222,11111222,11111222' 
COMPS,ioos:station:USF.COMPS:C10:1,2019-08-09T16:35:00,27.1690,-82.9260,3.0,5.63,255.52,7.0,'11111222,11111222,11111222' 
COMPS,ioos:station:USF.COMPS:C10:1,2019-08-09T17:35:00,27.1690,-82.9260,3.0,4.57,270.43,6.01,'11111222,11111222,11111222' 
COMPS,ioos:station:USF.COMPS:C10:1,2019-08-09T18:35:00,27.1690,-82.9260,3.0,5.33,257.32,6.85,'11111222,11111222,11111222' 
COMPS,ioos:station:USF.COMPS:C10:1,2019-08-09T19:35:00,27.1690,-82.9260,3.0,7.0,249.08,8.71,'11111222,11111222,11111222' 
COMPS,ioos:station:USF.COMPS:C10:1,2019-08-09T20:35:00,27.1690,-82.9260,3.0,6.06,259.2,7.26,'11111222,11111222,11111222' 